DECAYED

STARLINK-2327, 47871 (Decayed)

Orbit data source: Space-Track

STARLINK-2327, 47871 was a payload satellite owned by SpaceX/Seattle (US) in LEO that was launched on Sun, 14 Mar 2021 UTC via an FALCON 9 launch vehicle from the Air Force Eastern Test Range (AFETR). Payload-class satellites include a variety of spacecraft equipped with specific instruments for various scientific and technological missions. These include communications satellites like Starlink; space stations such as the ISS; scientific satellites like the Hubble; Earth observation satellites from companies like Planet Labs, Umbra, and HawkEye 360; GPS; miniature CubeSats for education and research; and military/defense satellites.

Not visible in the next 10 days
Identifier
47871, 2021-021M
Orbit
Decayed
Country
Flag of USUS
Related business
Manufacturer
SpaceX/Seattle
Mission
Decayed Commercial Communications
Bus & Motor
STARLINK, Unknown motor
Mass
260 kg wet, ~248 kg dry
Launch date (UTC)
2021-03-14 (5 years ago)
Launch vehicle
FALCON 9
Launch site
Air Force Eastern Test Range (AFETR)
Object type
Payload
Rocket body
Debris
Shape & HBR
Box + 1 Pan, 10.1 m
Radar Cross Section
13.562 m², Large (>1 m²)

Expand to show TLE details & history
Last TLE update: 1 year ago

TLE from 1 year ago
0 STARLINK-2327
1 47871U 21021M   25024.78367073  .21553216  12554-4  49187-3 0  9995
2 47871  53.0171 263.1367 0005257 282.3274 157.9388 16.46188358214706
Epoch: 2025-01-24T18:48Z
TLE epoch observation values (Epoch: 2025-01-24T18:48:29.151Z)
Latitude
52.09837°
Longitude
-69.22449°
Altitude
158.801 km
Speed
7.816 km/s
True Right ascension
22h 28m 57s
True Declination
51° 54' 58"
Sunlit
Object was in daylight at epoch
Visualization orbit readout
Latitude
Unknown
Longitude
Unknown
Altitude
Unknown
Speed
Unknown
Apparent Right ascension
Unknown
Apparent Declination
Unknown
Sunlit
N/A
Visualization observer readout
Local Sidereal Time
23:07:31
Azimuth
Unknown
Elevation
Unknown
Doppler factor
Unknown
Orbital elements
Apogee altitude
153.117 km
Perigee altitude
146.254 km
Semi-major axis
6,527.822 km
Eccentricity
0.00053
Inclination
53.0171°
RAAN
263.1367°
Arg. of periapsis
282.3274°
True anomaly
157.96141°
Mean anomaly
157.9388°
Eccentric anomaly
157.95011°
Mean motion
4.1152 °/min
Orbital period
87.48 mins
BSTAR
0.00049187
Loading maneuver chart data...
Computing Atmospheric mass density...

Documentation

Showing up to 5 results
|